Regional Weather Roundup
Issued by NWS

Home | Current Version | Previous Version | Graphics & Text | Print | Product List | Glossary On
Versions: 1 2 3 4 5 6 7 8 9 10 11 12 13 14 15 16 17 18 19 20 21 22 23 24 25 26 27 28 29 30 31 32 33 34 35 36 37 38 39 40 41 42 43 44 45 46 47 48 49 50
869
ASUS43 KLSX 281407
RWRMO
WEATHER SUMMARY FOR MISSOURI
NATIONAL WEATHER SERVICE SPRINGFIELD MO
900 AM CDT FRI JUL 28 2017

NOTE: "FAIR" INDICATES FEW OR NO CLOUDS BELOW 12,000 FEET WITH NO
       SIGNIFICANT WEATHER AND/OR OBSTRUCTIONS TO VISIBILITY.
       CURRENT SKY AND/OR WEATHER CONDITIONS ARE NOT AVAILABLE FOR
       CHILLICOTHE AND FARMINGTON.

MOZ001>031-035>038-043-044-053-054-281500-
...NORTHERN AND WESTERN MISSOURI...

CITY           SKY/WX    TMP DP  RH WIND       PRES   REMARKS
KANSAS CTY INT PTSUNNY   75  67  76 E10       30.01S
LEE`S SUMMIT   SUNNY     75  71  87 E8        30.00F
ST JOSEPH      MOSUNNY   76  68  76 E5        30.02R
CHILLICOTHE      N/A     75  64  68 NE6       30.03R
KIRKSVILLE       N/A    N/A N/A N/A MISG      30.03R

$$
MOZ066>068-077>081-088>096-101>105-281500-
...SOUTHWEST MISSOURI...

CITY           SKY/WX    TMP DP  RH WIND       PRES   REMARKS
SPRINGFIELD    MOSUNNY   79  73  82 NE8       29.95S
JOPLIN         CLOUDY    79  77  94 NE8       29.96R
BRANSON        CLOUDY    75  75 100 CALM      29.96R

$$
MOZ032>034-039>042-045>050-055>058-069>072-281500-
...CENTRAL MISSOURI...

CITY           SKY/WX    TMP DP  RH WIND       PRES   REMARKS
COLUMBIA       SUNNY     75  67  76 N7        29.98R
JEFFERSON CITY SUNNY     77  68  73 NE5       29.97R
ROLLA          MOSUNNY   75  71  87 NE8       29.97R
SEDALIA        MOSUNNY   76  73  91 NE12      30.00R
WHITEMAN AFB   MOSUNNY   74  74 100 N8        29.98R
OSAGE BEACH    CLOUDY    74  72  93 N5        29.97R

$$
MOZ051-052-059>065-281500-
...EAST CENTRAL MISSOURI...

CITY           SKY/WX    TMP DP  RH WIND       PRES   REMARKS
ST LOUIS INTL  MOSUNNY   76  63  64 N8        29.93R
SPIRIT OF STL  MOSUNNY   76  65  68 N8        29.93R
ST CHARLES     SUNNY     75  64  68 N13       29.93R

$$
MOZ072>076-082>087-097>100-106>115-281500-
...SOUTH CENTRAL AND SOUTHEAST MISSOURI...

CITY           SKY/WX    TMP DP  RH WIND       PRES   REMARKS
CAPE GIRARDEAU CLOUDY    80  73  79 N6        29.87R
FARMINGTON     CLOUDY    75  72  90 N6        29.93R FOG
POPLAR BLUFF   MOSUNNY   81  76  84 NW7       29.88R
WEST PLAINS    CLOUDY    75  72  90 N5        29.96R

$$




USA.gov is the U.S. government's official web portal to all federal, state and local government web resources and services.